| time (UTC) | temp F | wind direction | speed knots | gust knots | rain 1hr in | rain 24hr in | rain mn in | humidity % | barometer mb |
| 20260506165003 | 48 | 358 | 3.5 | 6.1 | 0.00 | 0.00 | 0.00 | 50 | 1018.9 |
| 20260506164003 | 48 | 203 | 2.6 | 7.0 | 0.00 | 0.00 | 0.00 | 49 | 1018.9 |
| 20260506163003 | 48 | 183 | 3.5 | 8.7 | 0.00 | 0.00 | 0.00 | 51 | 1019.1 |
| 20260506162002 | 47 | 170 | 2.6 | 6.1 | 0.00 | 0.00 | 0.00 | 52 | 1019.0 |
| 20260506161003 | 48 | 159 | 1.7 | 7.8 | 0.00 | 0.00 | 0.00 | 52 | 1019.2 |
| 20260506160003 | 49 | 292 | 2.6 | 7.8 | 0.00 | 0.00 | 0.00 | 50 | 1019.4 |
| 20260506154003 | 49 | 125 | 3.5 | 7.0 | 0.00 | 0.00 | 0.00 | 54 | 1019.2 |
| 20260506153002 | 49 | 170 | 2.6 | 5.2 | 0.00 | 0.00 | 0.00 | 55 | 1019.5 |
| 20260506152003 | 47 | 302 | 4.3 | 7.0 | 0.00 | 0.00 | 0.00 | 56 | 1019.3 |
| 20260506151003 | 47 | 147 | 3.5 | 7.0 | 0.00 | 0.00 | 0.00 | 57 | 1019.3 |
| 20260506150003 | 46 | 285 | 2.6 | 5.2 | 0.00 | 0.00 | 0.00 | 60 | 1019.1 |
| 20260506145003 | 46 | 182 | 1.7 | 5.2 | 0.00 | 0.00 | 0.00 | 60 | 1019.3 |
| 20260506144002 | 45 | 64 | 2.6 | 7.8 | 0.00 | 0.00 | 0.00 | 62 | 1019.1 |
| 20260506143003 | 45 | 65 | 2.6 | 5.2 | 0.00 | 0.00 | 0.00 | 59 | 1019.3 |
| 20260506142003 | 45 | 139 | 2.6 | 7.0 | 0.00 | 0.00 | 0.00 | 63 | 1019.2 |
| 20260506141002 | 45 | 111 | 5.2 | 7.0 | 0.00 | 0.00 | 0.00 | 62 | 1019.2 |
| 20260506135002 | 44 | 78 | 2.6 | 7.8 | 0.00 | 0.00 | 0.00 | 64 | 1019.1 |
| 20260506134002 | 44 | 84 | 3.5 | 6.1 | 0.00 | 0.00 | 0.00 | 69 | 1019.0 |
| 20260506133002 | 42 | 148 | 2.6 | 6.1 | 0.00 | 0.00 | 0.00 | 73 | 1018.9 |
| 20260506132003 | 41 | 63 | 2.6 | 4.3 | 0.00 | 0.00 | 0.00 | 74 | 1019.0 |
| 20260506131002 | 41 | 85 | 3.5 | 7.0 | 0.00 | 0.00 | 0.00 | 75 | 1018.9 |
| 20260506130003 | 40 | 40 | 4.3 | 6.1 | 0.00 | 0.00 | 0.00 | 75 | 1018.9 |
| 20260506125002 | 39 | 57 | 4.3 | 5.2 | 0.00 | 0.00 | 0.00 | 79 | 1018.8 |
| 20260506124003 | 39 | 9 | 2.6 | 5.2 | 0.00 | 0.00 | 0.00 | 80 | 1018.6 |
| 20260506123003 | 38 | 92 | 3.5 | 5.2 | 0.00 | 0.00 | 0.00 | 82 | 1018.4 |
| 20260506122003 | 38 | 73 | 2.6 | 4.3 | 0.00 | 0.00 | 0.00 | 83 | 1018.3 |
| 20260506121003 | 37 | 82 | 1.7 | 4.3 | 0.00 | 0.00 | 0.00 | 85 | 1018.2 |
| 20260506115003 | 36 | 80 | 1.7 | 6.1 | 0.00 | 0.00 | 0.00 | 88 | 1018.4 |
| 20260506113002 | 34 | 53 | 2.6 | 4.3 | 0.00 | 0.00 | 0.00 | 91 | 1018.1 |
| 20260506112003 | 34 | 278 | 1.7 | 5.2 | 0.00 | 0.00 | 0.00 | 92 | 1018.0 |
| 20260506111003 | 33 | 239 | 1.7 | 4.3 | 0.00 | 0.00 | 0.00 | 93 | 1017.6 |
| 20260506110002 | 33 | 17 | 1.7 | 5.2 | 0.00 | 0.00 | 0.00 | 93 | 1017.5 |
| 20260506104003 | 32 | 94 | 1.7 | 2.6 | 0.00 | 0.00 | 0.00 | 94 | 1017.4 |
| 20260506103003 | 32 | 96 | 1.7 | 2.6 | 0.00 | 0.00 | 0.00 | 93 | 1017.3 |
| 20260506102002 | 32 | 99 | 1.7 | 2.6 | 0.00 | 0.00 | 0.00 | 93 | 1017.3 |
| 20260506101003 | 32 | 139 | 1.7 | 1.7 | 0.00 | 0.00 | 0.00 | 93 | 1017.3 |
| 20260506095003 | 33 | 104 | 1.7 | 1.7 | 0.00 | 0.00 | 0.00 | 91 | 1017.3 |
| 20260506094002 | 33 | 76 | 0.9 | 1.7 | 0.00 | 0.00 | 0.00 | 91 | 1017.1 |
| 20260506093002 | 34 | 62 | 0.9 | 1.7 | 0.00 | 0.00 | 0.00 | 90 | 1017.2 |
| 20260506092003 | 34 | 80 | 1.7 | 2.6 | 0.00 | 0.00 | 0.00 | 90 | 1017.3 |
| 20260506091003 | 34 | 77 | 1.7 | 2.6 | 0.00 | 0.00 | 0.00 | 90 | 1017.3 |
| 20260506090003 | 34 | 78 | 1.7 | 2.6 | 0.00 | 0.00 | 0.00 | 89 | 1017.4 |
| 20260506085002 | 35 | 85 | 1.7 | 2.6 | 0.00 | 0.00 | 0.00 | 88 | 1017.4 |
| 20260506084002 | 35 | 81 | 1.7 | 4.3 | 0.00 | 0.00 | 0.00 | 87 | 1017.1 |
| 20260506083003 | 36 | 87 | 2.6 | 4.3 | 0.00 | 0.00 | 0.00 | 86 | 1017.1 |
| 20260506082003 | 36 | 80 | 4.3 | 4.3 | 0.00 | 0.00 | 0.00 | 86 | 1017.0 |
| 20260506081003 | 36 | 91 | 2.6 | 4.3 | 0.00 | 0.00 | 0.00 | 85 | 1016.8 |
| 20260506073002 | 37 | 34 | 0.9 | 2.6 | 0.00 | 0.00 | 0.00 | 82 | 1016.8 |
| 20260506072003 | 37 | 58 | 1.7 | 4.3 | 0.00 | 0.00 | 0.00 | 81 | 1016.5 |
| 20260506071003 | 37 | 96 | 4.3 | 5.2 | 0.00 | 0.00 | 0.00 | 80 | 1016.2 |
| 20260506062003 | 36 | 77 | 4.3 | 6.1 | 0.00 | 0.00 | 0.00 | 74 | 1016.3 |
| 20260506061002 | 36 | 98 | 0.9 | 1.7 | 0.00 | 0.00 | 0.00 | 73 | 1016.2 |
| 20260506051002 | 38 | 116 | 1.7 | 2.6 | 0.00 | 0.00 | 0.00 | 68 | 1016.1 |
| 20260506045003 | 39 | 125 | 1.7 | 2.6 | 0.00 | 0.00 | 0.00 | 62 | 1016.1 |
| 20260506043003 | 39 | 120 | 1.7 | 1.7 | 0.00 | 0.00 | 0.00 | 62 | 1016.0 |
| 20260506042002 | 40 | 109 | 0.9 | 1.7 | 0.00 | 0.00 | 0.00 | 59 | 1015.9 |
| 20260506041003 | 41 | 94 | 1.7 | 1.7 | 0.00 | 0.00 | 0.00 | 58 | 1016.0 |
| 20260506040003 | 41 | 83 | 1.7 | 1.7 | 0.00 | 0.00 | 0.00 | 56 | 1015.8 |
| 20260506035003 | 43 | 118 | 0.9 | 2.6 | 0.00 | 0.00 | 0.00 | 54 | 1016.1 |
| 20260506034002 | 43 | 74 | 1.7 | 2.6 | 0.00 | 0.00 | 0.00 | 52 | 1016.1 |
| 20260506033003 | 44 | 54 | 0.9 | 2.6 | 0.00 | 0.00 | 0.00 | 51 | 1015.9 |
| 20260506032003 | 43 | 59 | 0.9 | 2.6 | 0.00 | 0.00 | 0.00 | 51 | 1015.8 |
| 20260506031003 | 44 | 320 | 1.7 | 1.7 | 0.00 | 0.00 | 0.00 | 50 | 1015.8 |
| 20260506030002 | 44 | 248 | 0.9 | 4.3 | 0.00 | 0.00 | 0.00 | 49 | 1015.7 |
| 20260506025002 | 44 | 296 | 1.7 | 2.6 | 0.00 | 0.00 | 0.00 | 49 | 1015.6 |
| 20260506024003 | 45 | 40 | 1.7 | 2.6 | 0.00 | 0.00 | 0.00 | 48 | 1015.6 |
| 20260506023003 | 45 | 43 | 1.7 | 6.1 | 0.00 | 0.00 | 0.00 | 47 | 1015.5 |
| 20260506022003 | 46 | 295 | 2.6 | 7.0 | 0.00 | 0.00 | 0.00 | 46 | 1015.3 |
| 20260506021003 | 46 | 314 | 2.6 | 7.0 | 0.00 | 0.00 | 0.00 | 47 | 1015.2 |
| 20260506020003 | 46 | 310 | 4.3 | 8.7 | 0.00 | 0.00 | 0.00 | 44 | 1015.2 |
| 20260506015003 | 46 | 334 | 3.5 | 8.7 | 0.00 | 0.00 | 0.00 | 45 | 1015.0 |
| 20260506014003 | 47 | 3 | 5.2 | 12.2 | 0.00 | 0.00 | 0.00 | 45 | 1014.9 |
| 20260506013003 | 46 | 295 | 3.5 | 10.4 | 0.00 | 0.00 | 0.00 | 44 | 1014.7 |
| 20260506011002 | 47 | 341 | 5.2 | 14.8 | 0.00 | 0.00 | 0.00 | 42 | 1014.4 |
| 20260506010002 | 47 | 316 | 2.6 | 17.4 | 0.00 | 0.00 | 0.00 | 42 | 1014.6 |
| 20260506005003 | 48 | 321 | 5.2 | 14.8 | 0.00 | 0.00 | 0.00 | 41 | 1014.4 |
| 20260506004003 | 48 | 297 | 7.0 | 21.7 | 0.00 | 0.00 | 0.00 | 40 | 1014.5 |
| 20260506003004 | 48 | 294 | 11.3 | 20.9 | 0.00 | 0.00 | 0.00 | 39 | 1014.3 |
| 20260506002003 | 49 | 301 | 7.8 | 19.1 | 0.00 | 0.00 | 0.00 | 39 | 1014.2 |
| 20260506001002 | 49 | 319 | 5.2 | 25.2 | 0.00 | 0.00 | 0.00 | 39 | 1014.3 |
| 20260506000002 | 50 | 305 | 10.4 | 25.2 | 0.00 | 0.00 | 0.00 | 38 | 1014.1 |
| 20260505235003 | 50 | 303 | 6.1 | 20.0 | 0.00 | 0.00 | 0.00 | 38 | 1014.1 |
| 20260505234003 | 50 | 320 | 10.4 | 20.0 | 0.00 | 0.00 | 0.00 | 38 | 1014.2 |
| 20260505233003 | 50 | 319 | 9.6 | 24.3 | 0.00 | 0.00 | 0.00 | 37 | 1014.2 |
| 20260505232003 | 51 | 299 | 12.2 | 17.4 | 0.00 | 0.00 | 0.00 | 37 | 1014.3 |
| 20260505230002 | 51 | 289 | 12.2 | 26.1 | 0.00 | 0.00 | 0.00 | 37 | 1014.1 |
| 20260505225003 | 52 | 273 | 12.2 | 22.6 | 0.00 | 0.00 | 0.00 | 36 | 1013.7 |
| 20260505224003 | 51 | 286 | 7.8 | 24.3 | 0.00 | 0.00 | 0.00 | 36 | 1013.7 |
| 20260505223003 | 52 | 303 | 12.2 | 24.3 | 0.00 | 0.00 | 0.00 | 36 | 1013.7 |
| 20260505221003 | 52 | 319 | 12.2 | 24.3 | 0.00 | 0.00 | 0.00 | 36 | 1013.5 |
| 20260505220003 | 52 | 292 | 16.5 | 24.3 | 0.00 | 0.00 | 0.00 | 36 | 1013.5 |
| 20260505215003 | 53 | 275 | 9.6 | 21.7 | 0.00 | 0.00 | 0.00 | 34 | 1013.5 |
| 20260505214003 | 52 | 299 | 13.9 | 25.2 | 0.00 | 0.00 | 0.00 | 34 | 1013.7 |
| 20260505213002 | 53 | 300 | 11.3 | 20.0 | 0.00 | 0.00 | 0.00 | 37 | 1013.4 |
| 20260505212004 | 52 | 299 | 9.6 | 22.6 | 0.00 | 0.00 | 0.00 | 37 | 1013.3 |
| 20260505211003 | 51 | 280 | 8.7 | 21.7 | 0.00 | 0.00 | 0.00 | 36 | 1013.3 |
| 20260505210003 | 54 | 274 | 8.7 | 20.9 | 0.00 | 0.00 | 0.00 | 36 | 1013.1 |
| 20260505205003 | 52 | 278 | 8.7 | 25.2 | 0.00 | 0.00 | 0.00 | 36 | 1013.0 |
| 20260505204002 | 53 | 297 | 11.3 | 21.7 | 0.00 | 0.00 | 0.00 | 38 | 1013.3 |
| 20260505203003 | 52 | 247 | 8.7 | 20.0 | 0.00 | 0.00 | 0.00 | 37 | 1013.1 |
| 20260505202004 | 55 | 240 | 6.1 | 20.9 | 0.00 | 0.00 | 0.00 | 34 | 1013.3 |
| 20260505200003 | 53 | 259 | 7.0 | 20.0 | 0.00 | 0.00 | 0.00 | 37 | 1013.2 |
| 20260505195003 | 52 | 286 | 9.6 | 26.1 | 0.00 | 0.00 | 0.00 | 37 | 1013.3 |
| 20260505194003 | 53 | 297 | 13.0 | 26.1 | 0.00 | 0.00 | 0.00 | 39 | 1013.0 |
| 20260505193003 | 53 | 275 | 7.0 | 20.0 | 0.00 | 0.00 | 0.00 | 38 | 1012.8 |
| 20260505192003 | 52 | 290 | 8.7 | 24.3 | 0.00 | 0.00 | 0.00 | 38 | 1012.8 |
| 20260505191002 | 53 | 281 | 9.6 | 19.1 | 0.00 | 0.00 | 0.00 | 37 | 1012.7 |
| 20260505190003 | 54 | 257 | 4.3 | 20.0 | 0.00 | 0.00 | 0.00 | 37 | 1012.6 |
| 20260505185003 | 54 | 287 | 7.8 | 18.2 | 0.00 | 0.00 | 0.00 | 36 | 1012.8 |
| 20260505184002 | 53 | 279 | 13.0 | 19.1 | 0.00 | 0.00 | 0.00 | 36 | 1012.7 |
| 20260505183004 | 54 | 282 | 10.4 | 26.1 | 0.00 | 0.00 | 0.00 | 34 | 1012.3 |
| 20260505182003 | 52 | 299 | 11.3 | 22.6 | 0.00 | 0.00 | 0.00 | 36 | 1012.5 |
| 20260505180003 | 54 | 234 | 7.0 | 13.9 | 0.00 | 0.00 | 0.00 | 34 | 1012.3 |
| 20260505175003 | 53 | 232 | 7.8 | 20.9 | 0.00 | 0.00 | 0.00 | 34 | 1012.4 |
| 20260505174003 | 52 | 264 | 8.7 | 18.2 | 0.00 | 0.00 | 0.00 | 36 | 1012.3 |
| 20260505172003 | 52 | 262 | 7.8 | 19.1 | 0.00 | 0.00 | 0.00 | 40 | 1012.4 |
| 20260505171003 | 51 | 290 | 10.4 | 18.2 | 0.00 | 0.00 | 0.00 | 38 | 1012.1 |
| 20260505170003 | 51 | 223 | 4.3 | 13.0 | 0.00 | 0.00 | 0.00 | 43 | 1012.0 |